Location: West Sayville
(40.7279°N, 73.0976°W)
Time: 06:01:08
(UTC+00:00)

Cosmos 1346 Rocket - Pass Details

Date: 29 October 2020
Orbit: 535 x 543 km, 81.2° (Epoch: 27 November)

Event Time Altitude Azimuth Distance (km) Brightness Sun altitude
Rises 22:16:57 0° 8° (N) 2,713 6.1 -5.4°
Reaches altitude 10° 22:19:47 10° 29° (NNE) 1,816 5.1 -6.0°
Maximum altitude 22:22:25 17° 70° (ENE) 1,430 4.3 -6.4°
Drops below altitude 10° 22:25:02 10° 112° (ESE) 1,807 5.0 -6.9°
Sets 22:27:49 0° 133° (SE) 2,694 6.0 -7.4°
